Regional Weather Roundup
Issued by NWS

Home | Current Version | Previous Version | Text Only | Print | Product List | Glossary Off
Versions: 1 2 3 4 5 6 7 8 9 10 11 12 13 14 15 16 17 18 19 20 21 22 23 24 25 26 27 28 29 30 31 32 33 34 35 36 37 38 39 40 41 42 43 44 45 46 47 48 49 50

000
ASUS45 KTFX 160019
RWRMT
MONTANA HOURLY WEATHER ROUNDUP
NATIONAL WEATHER SERVICE GREAT FALLS MT
619 PM MDT MON SEP 15 2014

NOTE: "FAIR" INDICATES FEW OR NO CLOUDS BELOW 12000 FEET WITH NO
SIGNIFICANT WEATHER AND/OR OBSTRUCTIONS TO VISIBILITY.

* THESE STATIONS ARE NOT UNDER NWS QUALITY CONTROL. THEY DO NOT
   REPORT WEATHER SUCH AS PRECIPITATION OR FOG.

MTZ001>007-043-160100-
WEST OF THE DIVIDE
CITY           SKY/WX    TMP DP  RH WIND       PRES   REMARKS
KALISPELL      CLEAR     75  30  19 S6        30.00F
MISSOULA       CLEAR     81  30  16 SE6       30.00F
BUTTE          CLEAR     75  25  15 NW10      30.13S
MULLAN PASS    CLEAR     70  25  18 CALM      30.16S
* LINCOLN      N/A       79  22  12 W6G14      N/A
* LOOKOUT PASS N/A       76  28  17 S2         N/A
* POLSON       N/A       74  29  19 S2         N/A
* RONAN APT    CLEAR     81  32  17 N/A        N/A
* SEELEY LAKE  N/A       80  23  12 W6G14      N/A
* THOMP F APT  CLEAR     84  34  17 N/A        N/A
$$

MTZ008-052>055-160100-
SOUTHWEST MONTANA
CITY           SKY/WX    TMP DP  RH WIND       PRES   REMARKS
BOZEMAN        CLEAR     77  36  23 CALM      30.08F
DILLON         CLEAR     77  25  14 W17G25    30.10S
W YELLOWSTONE  CLEAR     72  18  13 SW10      30.21S
* THREE FORKS  CLEAR     75  48  39 NE6        N/A
* BOULDER HILL N/A       73  25  17 N4         N/A
* MONIDA PASS  N/A       72  23  16 NW14G20    N/A
* RAYNOLDS PAS N/A       73  61  66 SW6G12     N/A
* WHITEHALL    N/A       81  39  22 SE4        N/A
* WISE RIVER   N/A       77  18  11 NW8G16     N/A
$$

MTZ009>010-012-014-046-048-049-054-160100-
EAST SLOPES AND CENTRAL MONTANA
CITY           SKY/WX    TMP DP  RH WIND       PRES   REMARKS
CUT BANK       CLEAR     77  34  21 W12       30.01S
GREAT FALLS    CLEAR     75  37  25 E6        30.02F
HELENA         CLEAR     81  34  18 E5        30.03F
MALMSTROM AFB  CLEAR     75  34  22 NE2       30.03F
* CONRAD       CLEAR     77  37  24 N/A        N/A
* EAST GLACIER N/A       70  31  24 W14        N/A
* MONARCH      N/A       70  22  16 NW8        N/A
* PENDROY      N/A       74  36  25 SW1G6      N/A
* ROGERS PASS  N/A       66  27  23 NW2G8      N/A
* SAINT MARY   N/A       73  33  23 SW7G17     N/A
* SWEET GRASS  N/A       74  39  28 S8         N/A
* WHITE SULPH  N/A       76  27  16 NW7G18     N/A
$$

MTZ011-013-016-021-035-040-045-047-050-051-160100-
NORTH CENTRAL MONTANA
CITY           SKY/WX    TMP DP  RH WIND       PRES   REMARKS
HAVRE          CLEAR     73  43  34 E6        30.01S
LEWISTOWN      CLEAR     73  43  34 N5        30.07S
* CHINOOK      CLEAR     72  43  35 E7        30.00F
* FORT BENTON  CLEAR     75  39  27 CALM      30.01F
* CHESTER      N/A       75  38  26 S1         N/A
* DENTON       N/A       74  38  27 NE8        N/A
* JUDITH GAP   N/A       69  40  35 SE9        N/A
* LOMA         N/A       77  41  28 SW1G6      N/A
$$

MTZ017>020-022>027-061-062-160100-
NORTHEAST MONTANA
CITY           SKY/WX    TMP DP  RH WIND       PRES   REMARKS
GLASGOW        CLEAR     68  36  31 CALM      30.04F
GLENDIVE       CLEAR     66  37  34 SW3       30.09F
JORDAN         CLEAR     70  37  30 S6        30.05S
SIDNEY         CLEAR     64  36  35 S3        30.09F
WOLF POINT     CLEAR     70  34  27 W6        30.05F
* BEAVER HILL  N/A       68  35  30 SW7        N/A
* CIRCLE       N/A       69  41  36 N/A        N/A
* LINDSAY DVD  N/A       66  35  32 SW6        N/A
* NAVAJO       N/A       66  29  25 W9         N/A
* SACO         N/A       71  37  29 S4         N/A
$$

MTZ028>042-056>058-160100-
SOUTHCENTRAL AND SOUTHEAST MONTANA
CITY           SKY/WX    TMP DP  RH WIND       PRES   REMARKS
BAKER          CLEAR     66  43  43 S8        30.10F
BILLINGS       CLEAR     72  45  38 NE6       30.07S
LIVINGSTON     CLEAR     79  25  14 NW5       30.07F
MILES CITY     CLEAR     72  39  30 CALM      30.05F
* LAUREL APT   CLEAR     73  43  34 N/A        N/A
* ROUNDUP APT  CLEAR     72  39  30 N/A        N/A
* ALZADA       N/A       66  43  43 E10        N/A
* HYSHAM       N/A      N/A N/A N/A N/A        N/A
* LAME DEER    N/A       68  40  36 SE3        N/A
* REED POINT   N/A       72  41  33 E3         N/A
* ROSCOE HILL  N/A       70  29  22 E4         N/A
$$

REGIONAL REPORTS...DAKOTAS
CITY           SKY/WX    TMP DP  RH WIND       PRES   REMARKS
WILLISTON      CLEAR     66  30  26 SW7       30.08S
DICKINSON      CLEAR     64  37  37 SW7       30.10F
BEACH          N/A       63  41  45 SW3       30.09F
CROSBY         CLEAR     64  32  30 SW6       30.07F
TIOGA          CLEAR     63  27  26 W6        30.11F
WATFORD CITY   CLEAR     66  32  28 SW6       30.06F
BISMARCK       CLEAR     66  36  33 S8        30.14F
GRAND FORKS    FAIR      64  39  40 SW7       30.08F
FARGO          CLEAR     61  37  41 SW8       30.14F
BUFFALO SD     CLEAR     66  39  37 SE14      30.06F
RAPID CITY     CLEAR     66  45  47 S14       30.14F
$$

REGIONAL REPORTS...WYOMING/IDAHO/WASHINGTON
CITY           SKY/WX    TMP DP  RH WIND       PRES   REMARKS
GILLETTE       CLEAR     72  45  38 SE14      30.10F
SHERIDAN       CLEAR     73  46  38 N6        30.08S
CODY           CLEAR     66  45  47 NE6       30.13R
YELLOWSTONE LA PTCLDY    66  27  23 W9G16     30.32R
SALMON         CLEAR     79  45  30 CALM      30.00F
MULLAN PASS    CLEAR     70  25  18 CALM      30.16S
SAND POINT     CLEAR     77  36  23 CALM      29.96F
SPOKANE        PTCLDY    82  28  14 NE3       29.95F
$$

REGIONAL REPORTS...ALBERTA
CITY           SKY/WX    TMP DP  RH WIND       PRES   REMARKS
CALGARY        FAIR      72  43  35 NE7       30.00S
LETHBRIDGE     N/A       72  45  38 NE6       29.98S
MEDICINE HAT   N/A       75  39  27 VRB2      29.96F
EDMONTON       N/A       72  45  38 N3        29.94F
WATERTON GATE  N/A       72  39  30 SW10       N/A
CARDSTON       N/A       75  45  34 W3         N/A
MILK RIVER     N/A       73  43  34 NE6        N/A
$$

REGIONAL REPORTS...SASKATCHEWAN
CITY           SKY/WX    TMP DP  RH WIND       PRES   REMARKS
MOOSE JAW      FAIR      68  43  40 NW3       30.02F
REGINA         FAIR      66  41  40 NW8       30.01S
VAL MARIE      N/A       68  39  35 S6         N/A
ASSINIBOIA     N/A       68  37  32 W10        N/A
CORONACH       N/A       66  32  28 SW6        N/A

$$




USA.gov is the U.S. government's official web portal to all federal, state and local government web resources and services.